Location: Holton (historical)
(33.9472°N, 118.4440°W)
Time: 13:30:16
(UTC+00:00)

ARGOS - Pass Details

Date: 03 August 2024
Orbit: 818 x 834 km, 98.4° (Epoch: 15 September)

Event Time Altitude Azimuth Distance (km) Brightness Sun altitude
Rises 12:32:10 0° 15° (NNE) 3,373 7.0 -7.5°
Reaches altitude 10° 12:34:33 10° 17° (NNE) 2,434 6.3 -7.0°
Maximum altitude 12:39:56 72° 102° (ESE) 866 3.5 -6.0°
Drops below altitude 10° 12:45:15 10° 186° (S) 2,409 5.3 -5.0°
Sets 12:47:36 0° 189° (S) 3,335 6.0 -4.6°
